Weather reports worldwide

Advertisment
Strasbourg, France (7190): temperature & dewpoint: 14.06.2018 11:00:00 - 20.06.2018 11:00:00 (CEST)Strasbourg, France (7190): temperature 5cm: 14.06.2018 11:00:00 - 20.06.2018 11:00:00 (CEST)Strasbourg, France (7190): temperature -20cm & temperature -100cm: 14.06.2018 11:00:00 - 20.06.2018 11:00:00 (CEST)Strasbourg, France (7190): wind speed & gusts: 14.06.2018 11:00:00 - 20.06.2018 11:00:00 (CEST)Strasbourg, France (7190): wind direction: 14.06.2018 11:00:00 - 20.06.2018 11:00:00 (CEST)Strasbourg, France (7190): reduced air pressure: 14.06.2018 11:00:00 - 20.06.2018 11:00:00 (CEST)Strasbourg, France (7190): visibility: 14.06.2018 11:00:00 - 20.06.2018 11:00:00 (CEST)Strasbourg, France (7190): sunshine duration: 14.06.2018 11:00:00 - 20.06.2018 11:00:00 (CEST)Strasbourg, France (7190): precipitation: 14.06.2018 11:00:00 - 20.06.2018 11:00:00 (CEST)
Date & Time tt [°C] td [°C] tt 5cm [°C] tt -20cm [°C] tt -100cm [°C] ff [km/h] ff [kn] fx [km/h] fx [kn] dd ppp [hPa] vv [km] sd [min] rr [mm]
20.06.2018 11:00:00 24,9 17,9 29,9 23,5 20,2 8 5 14 8 NNE 1021,1 36 60 0,0
20.06.2018 10:00:00 23,0 17,2 28,2 23,5 20,2 6 4 15 8 N 1021,6 23 60 0,0
20.06.2018 09:00:00 21,0 16,4 25,3 23,6 20,2 8 4 13 7 N 1021,9 12 60 0,0
20.06.2018 08:00:00 19,7 16,0 20,3 23,8 20,2 9 5 16 9 N 1022,0 10 60 0,0
20.06.2018 07:00:00 18,2 15,6 17,0 24,0 20,2 7 4 29 16 N 1022,1 9 60 0,0
20.06.2018 06:00:00 16,5 14,7 14,1 24,3 20,2 8 5 13 7 NNW 1022,3 16 5 0,0
20.06.2018 05:00:00 16,0 14,0 13,9 24,6 20,2 5 3 8 5 N 1022,5 6 0 0,0
20.06.2018 04:00:00 16,8 14,8 15,7 24,8 20,2 6 3 13 7 N 1022,7 25 0 0,0
20.06.2018 03:00:00 17,2 15,0 16,3 25,1 20,2 9 5 16 9 NNW 1022,9 23 0 0,0
20.06.2018 02:00:00 17,4 15,2 16,7 25,4 20,2 11 6 17 9 NNW 1023,1 24 0 0,0
20.06.2018 01:00:00 17,9 15,5 17,4 25,6 20,2 11 6 15 8 NNW 1023,2 20 0 0,0
20.06.2018 00:00:00 18,2 15,6 17,4 25,9 20,2 10 5 15 8 NNW 1023,3 15 0 0,0
19.06.2018 23:00:00 19,8 16,1 19,0 26,1 20,2 10 5 22 12 NNW 1023,2 25 0 0,0
19.06.2018 22:00:00 21,9 16,0 20,6 26,2 20,2 12 6 29 15 N 1022,8 13 6 0,0
19.06.2018 21:00:00 24,4 16,4 23,6 26,1 20,2 10 5 22 12 N 1022,4 23 60 0,0
19.06.2018 20:00:00 25,6 16,2 28,2 26,0 20,2 16 8 26 14 NNW 1022,5 23 60 0,0
19.06.2018 19:00:00 26,8 16,7 31,1 25,7 20,2 14 7 29 16 NNW 1022,6 25 60 0,0
19.06.2018 18:00:00 26,9 16,2 31,0 25,4 20,2 10 5 22 12 NNE 1022,7 29 53 0,0
19.06.2018 17:00:00 26,7 16,6 26,6 25,0 20,2 9 5 18 10 N 1023,1 32 19 0,0
19.06.2018 16:00:00 27,0 16,0 30,7 24,4 20,2 6 3 16 8 SSE 1023,2 46 52 0,0
19.06.2018 15:00:00 26,3 15,7 27,1 24,0 20,2 3 2 21 11 NE 1023,6 46 27 0,0
19.06.2018 14:00:00 25,4 17,1 26,5 23,5 20,1 5 3 16 9 NE 1024,0 41 28 0,0
19.06.2018 13:00:00 24,0 15,2 26,9 23,1 20,2 6 3 19 10 WSW 1024,4 27 37 0,0
19.06.2018 12:00:00 23,9 15,4 25,5 22,8 20,1 5 3 14 7 SW 1024,6 35 23 0,0
19.06.2018 11:00:00 23,3 15,9 25,2 22,6 20,1 - - - - - 1024,8 33 55 0,0
19.06.2018 10:00:00 21,8 15,9 23,7 22,6 20,1 5 3 12 7 SSE 1025,2 30 32 0,0
19.06.2018 09:00:00 20,1 16,1 19,9 22,7 20,2 3 2 9 5 SSW 1025,4 27 29 0,0
19.06.2018 08:00:00 17,6 14,7 17,7 22,8 20,2 5 3 9 5 WSW 1025,2 22 29 0,0
19.06.2018 07:00:00 15,7 14,4 13,7 23,0 20,1 4 2 6 3 SW 1025,2 21 3 0,0
19.06.2018 06:00:00 14,7 13,2 12,5 23,3 20,2 5 3 9 5 SW 1025,0 22 0 0,0
19.06.2018 05:00:00 14,5 13,0 12,4 23,5 20,1 7 4 9 5 SW 1024,7 11 0 0,0
19.06.2018 04:00:00 15,6 13,6 13,5 23,8 20,2 7 4 10 5 SSW 1024,5 27 0 0,0
19.06.2018 03:00:00 16,5 14,3 15,4 23,9 20,1 5 3 11 6 SW 1024,3 35 0 0,0
19.06.2018 02:00:00 17,2 14,7 14,9 24,2 20,1 9 5 12 6 WNW 1024,0 39 0 0,0
19.06.2018 01:00:00 16,8 13,9 15,2 24,4 20,1 4 2 11 6 WSW 1023,9 36 0 0,0
19.06.2018 00:00:00 18,2 13,9 16,6 24,6 20,1 5 3 14 8 SW 1023,8 39 0 0,0
18.06.2018 23:00:00 18,7 14,4 18,0 24,8 20,2 4 2 9 5 NW 1023,6 42 0 0,0
18.06.2018 22:00:00 20,1 14,0 18,7 24,9 20,1 7 4 13 7 NNW 1023,0 18 5 0,0
18.06.2018 21:00:00 21,8 13,9 21,0 24,9 20,1 7 4 18 10 NNW 1022,3 43 51 0,0
18.06.2018 20:00:00 22,5 13,3 22,8 24,9 20,1 9 5 19 10 NNW 1022,2 44 1 0,0
18.06.2018 19:00:00 22,8 13,3 23,3 24,8 20,1 12 6 22 12 NNW 1022,3 45 0 0,0
18.06.2018 18:00:00 23,5 12,8 25,2 24,6 20,1 8 5 18 10 NE 1022,1 38 9 0,0
18.06.2018 17:00:00 23,5 13,1 25,3 24,3 20,1 11 6 17 9 N 1022,2 43 0 0,0
18.06.2018 16:00:00 23,8 13,3 27,1 23,9 20,1 8 4 16 9 N 1022,2 36 17 0,0
18.06.2018 15:00:00 24,4 13,6 26,0 23,5 20,1 5 3 19 10 NNW 1022,1 38 16 0,0
18.06.2018 14:00:00 23,3 10,7 26,2 23,0 20,1 9 5 19 10 N 1022,4 39 40 0,0
18.06.2018 13:00:00 23,5 13,1 23,7 22,6 20,1 6 3 23 12 E 1022,7 14 27 0,0
18.06.2018 12:00:00 22,1 12,4 23,6 22,4 20,1 8 4 17 9 ENE 1022,7 46 31 0,0
18.06.2018 11:00:00 21,0 11,6 24,1 22,2 20,1 8 4 19 10 WSW 1023,1 43 35 0,0
18.06.2018 10:00:00 20,8 12,0 24,8 22,1 20,1 6 4 14 8 SSW 1023,0 20 60 0,0
18.06.2018 09:00:00 19,5 13,9 21,2 22,2 20,1 4 2 10 5 SSE 1022,9 38 60 0,0
18.06.2018 08:00:00 16,8 12,9 17,4 22,4 20,1 4 2 9 5 SW 1022,9 32 44 0,0
18.06.2018 07:00:00 15,3 13,1 11,8 22,6 20,1 6 3 9 5 SW 1022,8 5 56 0,0
18.06.2018 06:00:00 12,8 11,4 11,4 22,9 20,1 5 3 7 4 SSW 1022,9 19 0 0,0
18.06.2018 05:00:00 13,9 12,5 11,7 23,1 20,1 3 1 7 4 SSW 1022,5 16 0 0,0
18.06.2018 04:00:00 14,7 13,1 13,8 23,3 20,1 0 0 6 4 N 1022,4 20 0 0,0
18.06.2018 03:00:00 14,9 13,3 12,4 23,5 20,1 3 1 6 3 SW 1022,5 25 0 0,0
18.06.2018 02:00:00 15,6 12,9 13,9 23,7 20,1 2 1 6 3 W 1022,3 4,5 0 0,0
18.06.2018 01:00:00 16,6 13,3 15,6 23,9 20,1 3 2 8 4 SSW 1022,2 32 0 0,0
18.06.2018 00:00:00 16,9 13,8 15,9 24,1 20,1 4 2 9 5 NW 1021,8 35 0 0,0
17.06.2018 23:00:00 17,5 13,6 16,3 24,3 20,0 4 2 10 5 NW 1021,4 33 0 0,0
17.06.2018 22:00:00 17,6 13,1 16,6 24,4 20,1 8 4 19 10 NNW 1021,0 17 0 0,0
17.06.2018 21:00:00 18,8 12,8 18,2 24,6 20,0 14 8 26 14 NW 1020,5 41 8 0,0
17.06.2018 20:00:00 20,3 12,8 20,5 24,6 20,0 13 7 27 14 NNW 1019,7 45 0 0,0
17.06.2018 19:00:00 21,3 13,5 22,3 24,6 20,0 14 7 25 13 NW 1019,0 47 0 0,0
17.06.2018 18:00:00 21,7 13,3 22,7 24,6 20,0 16 9 27 14 WNW 1018,6 44 0 0,0
17.06.2018 17:00:00 22,8 13,8 24,6 24,4 20,0 8 5 19 10 WNW 1018,6 47 0 0,0
17.06.2018 16:00:00 22,3 13,6 23,7 24,2 20,0 3 2 10 6 SW 1018,5 36 0 0,0
17.06.2018 15:00:00 22,6 13,6 23,8 24,0 20,0 5 3 13 7 SE 1018,5 50 0 0,0
17.06.2018 14:00:00 23,0 15,1 21,9 23,8 20,0 6 3 12 6 SSE 1018,4 45 7 0,0
17.06.2018 13:00:00 21,8 12,9 23,7 23,6 20,0 3 2 18 10 S 1018,6 32 25 0,0
17.06.2018 12:00:00 21,9 13,3 22,8 23,5 20,0 7 4 19 10 S 1018,8 41 6 0,0
17.06.2018 11:00:00 20,7 13,6 20,7 23,5 20,0 7 4 16 9 WNW 1018,9 40 0 0,0
17.06.2018 10:00:00 20,3 13,5 21,5 23,6 20,0 8 4 15 8 WSW 1018,8 48 4 0,0
17.06.2018 09:00:00 20,3 13,5 22,5 23,7 20,0 8 4 17 9 NNW 1018,8 24 39 0,0
17.06.2018 08:00:00 18,8 14,3 20,0 23,9 20,0 10 5 18 10 NW 1018,6 29 51 0,0
17.06.2018 07:00:00 17,7 14,8 15,0 24,1 20,0 3 2 8 4 NE 1017,9 32 52 0,0
17.06.2018 06:00:00 15,6 13,6 14,2 24,3 20,0 0 0 9 5 N 1018,1 40 5 0,0
17.06.2018 05:00:00 16,2 14,0 15,3 24,6 19,9 7 4 12 7 NNW 1017,6 42 0 0,0
17.06.2018 04:00:00 17,3 14,9 16,3 24,8 20,0 8 4 10 5 N 1017,4 47 0 0,0
17.06.2018 03:00:00 18,8 14,7 17,3 25,1 20,0 4 2 6 4 ESE 1016,9 44 0 0,0
17.06.2018 02:00:00 19,3 14,8 17,9 25,3 20,0 2 1 10 5 ENE 1016,8 48 0 0,0
17.06.2018 01:00:00 19,2 14,0 18,3 25,6 20,0 4 2 20 11 NNW 1016,6 20 0 0,0
17.06.2018 00:00:00 19,8 14,4 19,2 25,9 20,0 14 7 23 12 NW 1016,3 52 0 0,0
16.06.2018 23:00:00 20,4 14,3 19,8 26,1 20,0 14 8 34 18 WNW 1015,8 54 0 0,0
16.06.2018 22:00:00 21,7 15,5 21,1 26,2 20,0 18 10 29 16 WNW 1015,3 23 5 0,0
16.06.2018 21:00:00 23,4 15,7 22,1 26,1 19,9 7 4 10 6 W 1014,3 39 37 0,0
16.06.2018 20:00:00 25,6 13,1 25,2 26,0 19,9 5 3 9 5 WSW 1014,0 45 53 0,0
16.06.2018 19:00:00 26,5 14,6 29,7 25,7 19,9 8 4 13 7 NNW 1013,8 33 60 0,0
16.06.2018 18:00:00 26,8 10,5 27,1 25,3 20,0 8 4 17 9 WSW 1013,9 46 40 0,0
16.06.2018 17:00:00 26,3 12,4 28,9 24,8 20,0 9 5 21 11 SW 1014,2 37 49 0,0
16.06.2018 16:00:00 26,4 12,5 30,4 24,3 20,0 9 5 17 9 SSW 1014,4 33 55 0,0
16.06.2018 15:00:00 25,9 13,4 29,4 23,7 19,9 7 4 18 10 SSE 1014,6 33 54 0,0
16.06.2018 14:00:00 25,5 14,3 29,9 23,2 19,9 4 2 14 8 S 1014,9 25 60 0,0
16.06.2018 13:00:00 24,4 13,6 29,4 22,9 19,9 5 3 13 7 NNE 1015,5 26 52 0,0
16.06.2018 12:00:00 22,7 15,5 26,0 22,7 19,9 5 3 11 6 NE 1015,9 19 23 0,0
16.06.2018 11:00:00 20,9 15,4 22,7 22,6 19,9 2 1 8 5 NE 1016,3 17 0 0,0
16.06.2018 10:00:00 19,0 14,5 19,7 22,6 19,9 4 2 9 5 N 1016,4 17 0 0,0
16.06.2018 09:00:00 17,7 14,8 18,2 22,8 19,9 4 2 8 4 NNW 1016,5 17 0 0,0
16.06.2018 08:00:00 16,3 14,3 16,0 23,0 19,9 0 0 6 4 N 1016,2 21 0 0,0
16.06.2018 07:00:00 15,0 14,2 13,6 23,2 19,9 0 0 8 5 N 1016,2 19 4 0,0
16.06.2018 06:00:00 13,3 12,5 12,2 23,5 19,9 3 2 6 3 NE 1016,1 18 4 0,0
16.06.2018 05:00:00 13,2 12,3 11,4 23,8 19,9 4 2 6 3 N 1016,1 20 0 0,0
16.06.2018 04:00:00 13,5 12,2 11,7 24,1 19,9 3 1 6 4 N 1016,1 21 0 0,0
16.06.2018 03:00:00 14,4 12,9 12,7 24,4 19,9 0 0 7 4 N 1016,2 21 0 0,0
16.06.2018 02:00:00 14,9 13,1 13,4 24,7 19,9 0 0 4 2 N 1016,5 21 0 0,0
16.06.2018 01:00:00 15,4 13,6 14,4 25,0 19,9 3 2 7 4 WNW 1016,6 29 0 0,0
16.06.2018 00:00:00 16,6 14,1 15,6 25,2 19,9 5 3 6 4 WNW 1016,5 30 0 0,0
15.06.2018 23:00:00 17,3 14,6 16,4 25,5 20,0 5 3 11 6 N 1016,5 35 0 0,0
15.06.2018 22:00:00 19,0 14,5 18,3 25,6 19,9 9 5 25 13 N 1016,3 41 0 0,0
15.06.2018 21:00:00 20,8 14,4 20,4 25,7 20,0 12 6 22 12 NNW 1016,1 48 51 0,0
15.06.2018 20:00:00 23,1 12,7 25,7 25,5 19,9 12 6 26 14 N 1015,7 49 60 0,0
15.06.2018 19:00:00 23,9 13,1 27,9 25,2 19,9 16 8 33 18 NNW 1015,5 34 60 0,0
15.06.2018 18:00:00 24,2 13,7 29,1 24,9 20,0 16 9 29 16 N 1015,5 36 58 0,0
15.06.2018 17:00:00 24,3 12,6 26,4 24,4 20,0 10 5 27 15 N 1015,6 38 37 0,0
15.06.2018 16:00:00 24,6 13,8 28,8 23,8 20,0 16 9 28 15 N 1015,9 38 53 0,0
15.06.2018 15:00:00 24,0 12,0 29,7 23,2 20,0 10 5 25 13 NNW 1016,1 45 60 0,0
15.06.2018 14:00:00 23,3 12,9 25,1 22,7 19,9 9 5 21 11 NNW 1016,4 35 56 0,0
15.06.2018 13:00:00 22,4 12,6 23,3 22,3 20,0 6 3 19 11 WSW 1016,6 14 38 0,0
15.06.2018 12:00:00 21,7 13,1 25,5 22,1 20,0 6 3 17 9 WNW 1016,9 44 54 0,0
15.06.2018 11:00:00 20,5 13,2 23,5 21,9 20,0 7 4 22 12 NE 1017,2 35 48 0,0
15.06.2018 10:00:00 19,2 12,9 21,9 21,9 20,0 10 5 16 8 NNE 1017,5 29 8 0,0
15.06.2018 09:00:00 18,2 13,3 21,2 21,9 20,0 5 3 13 7 NNW 1017,3 33 52 0,0
15.06.2018 08:00:00 16,8 13,5 16,6 22,1 20,0 7 4 15 8 NW 1017,0 35 9 0,0
15.06.2018 07:00:00 15,5 13,5 15,2 22,2 20,0 5 3 12 6 NNW 1017,0 26 0 0,0
15.06.2018 06:00:00 14,8 13,3 13,9 22,4 20,0 3 2 7 4 NNE 1017,1 21 0 0,0
15.06.2018 05:00:00 14,5 13,0 13,6 22,7 20,0 2 1 7 4 WNW 1017,1 20 0 0,0
15.06.2018 04:00:00 14,4 12,8 13,6 22,9 20,0 4 2 9 5 E 1017,1 19 0 0,0
15.06.2018 03:00:00 15,5 12,8 15,0 23,1 20,0 5 3 16 9 N 1017,5 34 0 0,0
15.06.2018 02:00:00 15,9 12,6 15,5 23,4 20,1 8 4 20 11 NNW 1017,7 36 0 0,0
15.06.2018 01:00:00 15,9 12,6 15,6 23,6 20,1 13 7 26 14 NW 1017,8 31 0 0,0
15.06.2018 00:00:00 16,6 12,7 15,2 23,8 20,1 6 4 9 5 SW 1017,5 21 0 0,0
14.06.2018 23:00:00 16,7 12,4 16,2 24,0 20,1 6 3 9 5 NW 1017,4 36 0 0,0
14.06.2018 22:00:00 17,6 12,7 16,8 24,1 20,1 4 2 12 6 NNW 1016,9 19 0 0,0
14.06.2018 21:00:00 18,7 12,0 18,2 24,1 20,1 8 4 19 10 NNW 1016,2 45 0 0,0
14.06.2018 20:00:00 20,4 11,6 20,8 24,0 20,1 6 3 18 10 N 1015,7 31 9 0,0
14.06.2018 19:00:00 21,4 10,2 22,5 23,7 20,1 8 4 16 9 NNE 1015,2 34 17 0,0
14.06.2018 18:00:00 21,3 9,8 23,9 23,3 20,1 7 4 20 11 NE 1015,3 41 46 0,0
14.06.2018 17:00:00 21,7 8,9 23,2 22,8 20,1 6 3 21 11 ENE 1015,3 45 57 0,0
14.06.2018 16:00:00 21,1 9,3 25,1 22,3 20,1 5 3 22 12 E 1015,6 14 58 0,0
14.06.2018 15:00:00 21,0 8,6 21,4 21,8 20,1 6 3 24 13 NE 1016,0 20 36 0,0
14.06.2018 14:00:00 20,0 9,0 21,7 21,4 20,2 9 5 20 11 W 1016,5 38 23 0,0
14.06.2018 13:00:00 20,6 10,1 22,3 20,9 20,2 8 5 18 10 NW 1016,6 35 42 0,0
14.06.2018 12:00:00 19,9 8,6 26,2 20,6 20,1 5 3 14 7 NE 1016,8 22 60 0,0
14.06.2018 11:00:00 18,3 8,3 20,9 20,4 20,1 6 3 16 8 N 1017,0 17 42 0,0

tt = temperature
td = dewpoint
tt 5cm = temperature 5cm
tt -20cm = temperature -20cm
tt -100cm = temperature -100cm
ff = wind speed
fx = gusts
dd = wind direction
ppp = reduced air pressure
vv = visibility
sd = sunshine duration
rr = precipitation

Next stations